This demonstration page uses our WeatherBlox Daily Observations layout. Learn more.

Left ArrowRight Arrow

41.86663, -103.66717

Hourly Observations for December 26, 2020

Temp ( °F °C ) Dew Point ( °F °C ) Humidity (%) Winds ( mph kmh ) Pressure ( in mb ) Visibility ( mi km ) Precip ( " mm )
12:53 am 00:53 Clear 23 -5 13 -10.6 65 65 NE 5 7 29.91 1013 10 16 0.00 0.00
1:53 am 01:53 Clear 20 -6.7 12 -11.1 71 71 NNW 5 7 29.91 1013 10 16 0.00 0.00
2:53 am 02:53 Clear 23 -5 12 -11.1 63 63 NE 3 6 29.88 1012 10 16 0.00 0.00
3:53 am 03:53 Clear 21 -6.1 11 -11.7 65 65 ENE 3 6 29.90 1012 10 16 0.00 0.00
4:53 am 04:53 Clear 27 -2.8 13 -10.6 55 55 Calm 29.89 1012 10 16 0.00 0.00
5:53 am 05:53 Clear 35 1.7 15 -9.4 44 44 S 5 7 29.90 1013 10 16 0.00 0.00
6:53 am 06:53 Clear 38 3.3 14 -10 37 37 W 9 15 29.89 1012 10 16 0.00 0.00
7:53 am 07:53 Sunny 44 6.7 13 -10.6 28 28 W 14 22 29.86 1011 10 16 0.00 0.00
8:53 am 08:53 Sunny 47 8.3 14 -10 26 26 WNW 8 13 29.87 1011 10 16 0.00 0.00
9:53 am 09:53 Sunny 51 10.6 13 -10.6 22 22 W 8 13 29.86 1011 10 16 0.00 0.00
10:53 am 10:53 Sunny 55 12.8 12 -11.1 18 18 WNW 8 13 29.83 1010 10 16 0.00 0.00
11:53 am 11:53 Sunny 60 15.6 13 -10.6 16 16 WNW 12 19 29.79 1009 10 16 0.00 0.00
12:53 pm 12:53 Sunny 60 15.6 10 -12.2 14 14 W 18 30 29.75 1007 10 16 0.00 0.00
1:53 pm 13:53 Sunny 56 13.3 10 -12.2 16 16 WNW 21 33 29.74 1007 10 16 0.00 0.00
2:53 pm 14:53 Mostly Cloudy 54 12.2 11 -11.7 18 18 WNW 13 20 29.72 1007 10 16 0.00 0.00
3:53 pm 15:53 Mostly Cloudy 50 10 12 -11.1 22 22 NW 8 13 29.73 1007 10 16 0.00 0.00
4:53 pm 16:53 Mostly Cloudy 46 7.8 12 -11.1 25 25 WNW 8 13 29.73 1007 10 16 0.00 0.00
5:53 pm 17:53 Cloudy 51 10.6 15 -9.4 24 24 NW 15 24 29.71 1006 10 16 0.00 0.00
6:53 pm 18:53 Cloudy 48 8.9 25 -3.9 41 41 W 15 24 29.74 1007 10 16 0.00 0.00
7:53 pm 19:53 Cloudy 46 7.8 26 -3.3 46 46 W 13 20 29.73 1007 10 16 0.00 0.00
8:53 pm 20:53 Partly Cloudy 45 7.2 26 -3.3 48 48 WNW 20 31 29.71 1006 10 16 0.00 0.00
9:53 pm 21:53 Clear 43 6.1 26 -3.3 51 51 W 16 26 29.72 1007 10 16 0.00 0.00
10:53 pm 22:53 Clear 41 5 26 -3.3 55 55 WNW 12 19 29.72 1007 10 16 0.00 0.00
11:53 pm 23:53 Clear 41 5 24 -4.4 51 51 WNW 15 24 29.73 1007 10 16 0.00 0.00

Powered by AerisWeather